Weather History for Shelbyville, IN

Change the Weather History Date:

Saturday, May 18, 2013

  Actual Average Record
Temperature  
Mean Temperature 74 °F 64 °F  
Max Temperature 83 °F 74 °F 84 °F (2012)
Min Temperature 65 °F 53 °F 37 °F (2002)
Degree Days  
Heating Degree Days 0 4  
Month to date heating degree days 55 101  
Since 1 July heating degree days 5048 5361  
Cooling Degree Days 9 2  
Month to date cooling degree days 59 25  
Year to date cooling degree days 75 38  
Growing Degree Days 23 (Base 50)    
Moisture  
Dew Point 64 °F    
Average Humidity 72    
Maximum Humidity 93    
Minimum Humidity 51    
Precipitation  
Precipitation T in 0.18 in 0.97 in (2004)
Month to date precipitation 1.26 3.29  
Year to date precipitation 10.99 15.79  
Sea Level Pressure  
Sea Level Pressure 30.00 in    
Wind  
Wind Speed 5 mph (East)    
Max Wind Speed 15 mph    
Max Gust Speed 18 mph    
Visibility 6 miles    
Events Rain    
T = Trace of Precipitation, MM = Missing Value Source: NWS Daily Summary

Daily Weather History Graph

Daily Weather History Graph

Search for Another Location

Airport:

Trip Planner

Search our weather history database for the weather conditions in past years. The results will help you decide how hot, cold, wet, or windy it might be!

Date:

Astronomy

May. 18, 2013 Rise Set
Actual Time 6:26 AM EDT 8:53 PM EDT
Civil Twilight 5:55 AM EDT 9:24 PM EDT
Nautical Twilight 5:17 AM EDT 10:02 PM EDT
Astronomical Twilight 4:35 AM EDT 10:45 PM EDT
Moon 1:57 PM EDT (5/18) 2:16 AM EDT (5/18)
Length of Visible Light 15h 28m
Length of Day
14h 27m
First Quarter, 55% of the Moon is Illuminated
May 18
First Quarter
May 25
Full
May 31
Last Quarter
Jun 8
New
Jun 16
First Quarter

Hourly Weather History & Observations

Time (EDT) Temp. Heat Index Dew Point Humidity Pressure Visibility Wind Dir Wind Speed Gust Speed Precip Events Conditions
12:53 AM 66.9 °F - 64.0 °F 90% 30.02 in 6.0 mi East 4.6 mph - N/A   Overcast
1:53 AM 66.9 °F - 63.0 °F 87% 30.01 in 5.0 mi ESE 4.6 mph - N/A   Overcast
2:53 AM 64.9 °F - 63.0 °F 93% 30.00 in 3.0 mi East 5.8 mph - N/A   Overcast
3:26 AM 64.4 °F - 62.6 °F 94% 30.01 in 2.5 mi East 3.5 mph - N/A   Mostly Cloudy
3:53 AM 64.9 °F - 63.0 °F 93% 30.00 in 2.5 mi Calm Calm - N/A   Overcast
4:11 AM 64.4 °F - 62.6 °F 94% 30.02 in 3.0 mi ENE 3.5 mph - N/A   Overcast
4:26 AM 64.4 °F - 62.6 °F 94% 30.02 in 2.5 mi Calm Calm - N/A   Overcast
4:42 AM 64.4 °F - 62.6 °F 94% 30.02 in 3.0 mi East 3.5 mph - N/A   Overcast
4:53 AM 64.9 °F - 63.0 °F 93% 30.01 in 3.0 mi ESE 3.5 mph - N/A   Mostly Cloudy
5:53 AM 64.9 °F - 62.1 °F 90% 30.01 in 3.0 mi SE 3.5 mph - N/A   Scattered Clouds
6:53 AM 66.0 °F - 63.0 °F 90% 30.02 in 3.0 mi ENE 4.6 mph - 0.00 in Rain Light Rain
7:13 AM 66.2 °F - 62.6 °F 88% 30.04 in 2.0 mi East 5.8 mph - 0.00 in   Overcast
7:53 AM 66.0 °F - 63.0 °F 90% 30.04 in 2.0 mi East 5.8 mph - 0.00 in   Overcast
8:42 AM 66.2 °F - 62.6 °F 88% 30.05 in 1.8 mi East 5.8 mph - 0.00 in Rain Light Rain
8:53 AM 66.0 °F - 63.0 °F 90% 30.04 in 2.0 mi ENE 4.6 mph - 0.00 in Rain Light Rain
9:06 AM 66.2 °F - 64.4 °F 94% 30.05 in 1.5 mi NE 6.9 mph - 0.00 in Rain Light Rain
9:22 AM 66.2 °F - 64.4 °F 94% 30.05 in 2.5 mi NNE 5.8 mph - 0.00 in   Overcast
9:50 AM 66.2 °F - 64.4 °F 94% 30.05 in 3.0 mi North 5.8 mph - 0.00 in   Overcast
9:53 AM 66.9 °F - 64.0 °F 90% 30.04 in 3.0 mi North 5.8 mph - 0.00 in   Overcast
10:53 AM 70.0 °F - 64.0 °F 81% 30.03 in 5.0 mi ENE 5.8 mph - N/A   Haze
11:53 AM 73.0 °F - 64.9 °F 76% 30.02 in 7.0 mi ENE 6.9 mph - N/A   Mostly Cloudy
12:16 PM 73.4 °F - 64.4 °F 73% 30.04 in 9.0 mi NE 9.2 mph - N/A   Mostly Cloudy
12:53 PM 75.0 °F - 63.0 °F 66% 30.02 in 10.0 mi East 9.2 mph - N/A   Overcast
1:53 PM 78.1 °F - 63.0 °F 60% 30.00 in 10.0 mi East 9.2 mph - N/A   Scattered Clouds
3:53 PM 81.0 °F 81.9 °F 62.1 °F 52% 29.96 in 10.0 mi East 10.4 mph 16.1 mph N/A   Partly Cloudy
4:53 PM 82.0 °F 83.0 °F 62.1 °F 51% 29.94 in 10.0 mi East 9.2 mph - N/A   Scattered Clouds
5:53 PM 81.0 °F 81.9 °F 62.1 °F 52% 29.94 in 10.0 mi East 6.9 mph - N/A   Scattered Clouds
6:53 PM 77.0 °F - 64.9 °F 66% 29.94 in 10.0 mi SSW 5.8 mph - N/A   Overcast
7:53 PM 75.0 °F - 66.0 °F 73% 29.94 in 10.0 mi SSW 3.5 mph - N/A   Overcast
8:53 PM 75.0 °F - 64.9 °F 71% 29.95 in 10.0 mi Calm Calm - N/A   Overcast
9:53 PM 73.0 °F - 64.9 °F 76% 29.96 in 10.0 mi NE 4.6 mph - 0.00 in   Overcast
10:53 PM 71.1 °F - 66.0 °F 84% 29.96 in 9.0 mi Calm Calm - N/A   Overcast
11:53 PM 71.1 °F - 66.0 °F 84% 29.96 in 8.0 mi SE 3.5 mph - N/A   Overcast